Regional Weather Roundup
Issued by NWS Green Bay, WI

Home | Current Version | Previous Version | Graphics & Text | Print | Product List | Glossary Off
Versions: 1 2 3 4 5 6 7 8 9 10 11 12 13 14 15 16 17 18 19 20 21 22 23 24 25 26 27 28 29 30 31 32 33 34 35 36 37 38 39 40 41 42 43 44 45 46 47 48 49 50

000
ASUS43 KGRB 182111
RWRGRB

NORTH-CENTRAL AND NORTHEAST WISCONSIN REGIONAL WEATHER ROUNDUP
NATIONAL WEATHER SERVICE GREEN BAY WI
300 PM CST SAT FEB 18 2017

WIZ005-009-010>012-018-019-182200-
NORTH CENTRAL WISCONSIN

CITY           SKY/WX    TMP DP  RH WIND       PRES   REMARKS
IRONWOOD       MOSUNNY   51  30  44 W13       29.67R
MANITOWISH WTR MOSUNNY   51  28  40 W12G17    29.66R
ARBOR VITAE    SUNNY     56  28  34 W9        29.67R
EAGLE RIVER    SUNNY     54  22  28 W12       29.64S
LAND O LAKES   SUNNY     56  22  27 NW10G21   29.66R
RHINELANDER    SUNNY     51  26  37 W15       29.67S
PHILLIPS       MOSUNNY   55  26  32 W9        29.68S
ANTIGO         SUNNY     47  32  54 SW12      29.68S
TOMAHAWK       SUNNY     55  22  27 W13       29.69R
MERRILL        NOT AVBL
$$

WIZ013-073-182200-
NORTHEAST WISCONSIN

CITY           SKY/WX    TMP DP  RH WIND       PRES   REMARKS
IRON MOUNTAIN  SUNNY     58  24  27 W9        29.60S
MARINETTE      SUNNY     60  34  37 SW10      29.64R
OCONTO         SUNNY     58  33  37 W10       29.65R
$$

WIZ017-030-035>037-045-182200-
CENTRAL WISCONSIN

CITY           SKY/WX    TMP DP  RH WIND       PRES   REMARKS
MEDFORD        SUNNY     46  32  59 SW9       29.72S
WAUSAU         SUNNY     49  32  52 W7        29.70S
MOSINEE        MOSUNNY   46  34  61 W9        29.73S
MARSHFIELD     SUNNY     49  31  49 W7        29.72S
WISC RAPIDS    CLOUDY    54  30  40 NW8       29.74S
STEVENS POINT  SUNNY     49  30  48 W5        29.73S
WAUPACA        SUNNY     58  30  34 CALM      29.72R
SHAWANO        SUNNY     57  32  38 SW12      29.68S
CLINTONVILLE   SUNNY     52  32  46 W9        29.70R
WAUTOMA        SUNNY     58  34  40 W7        29.73S
$$

WIZ038-039-048-051-182200-
FOX VALLEY

CITY           SKY/WX    TMP DP  RH WIND       PRES   REMARKS
NWS GREEN BAY  SUNNY     57  40  52 W9        29.69R
APPLETON       MOSUNNY   57  30  35 W12       29.69R
OSHKOSH        SUNNY     57  37  47 W9        29.71R
FOND DU LAC    SUNNY     59  36  42 NW9       29.71R
$$

WIZ022-050-052-182200-
EAST CENTRAL WISCONSIN

CITY           SKY/WX    TMP DP  RH WIND       PRES   REMARKS
EPHRAIM        FAIR      54  37  51 SW16      29.63R
WASHINGTON ISL FAIR      49  34  57 SW14G21   29.61S
STURGEON BAY   SUNNY     55  38  52 SW12      29.66R
MANITOWOC      SUNNY     56  39  53 MISG      29.69R
SHEBOYGAN      SUNNY     58  38  47 NW10      29.69R
$$

LMZ563-521-522-541>543-182200-
LAKESHORE

STATION/POSITION TIME  TEMP    WIND        PRES    VSBY  WAVE
                       AIR SEA DIR/SP/G                  HT/PER
                 (UTC) (F)     (DEG/KT/KT) (MB)    (MI)  (FT/S)
SHEBOYGAN LKSHOR 2100   59     290/  9/ 12 1005.1R
KEWAUNEE LKSHORE 2048   57     270/ 12/ 17 1004.1R
NORTHPORT PIER   2040   59     230/  6/ 11 1002.7S
SISTER BAY LKSHO 2035   57     230/ 13/ 16   N/A
CHAMBERS ISLAND  2040   51     190/  7/ 12 1003.0R
MENOMINEE LKSHOR 2048   58     220/ 13/ 16 1002.9R
$$




USA.gov is the U.S. government's official web portal to all federal, state and local government web resources and services.